Retour au catalogue

STARLINK-34004

ActifCommunicationsVLEO
NORAD 63941·PAYLOAD·🇺🇸 United States

Lancé May 13, 2025 depuis Vandenberg Space Force Base

Loading…

Prochains Passages (prochaines 24 heures)

TLE

FraisSource: CelesTrak SupGP

Époque: Sep 14, 2026, 21:39 UTC

1 63941C 25098R   26257.90256944 -.00039528  00000+0 -13747-2 0  2577
2 63941  70.0001 155.7356 0003205 268.3578 173.7791 15.29607273    12

Suivez STARLINK-34004 en temps réel avec AllMySat

Download on the App Store